Regional Weather Roundup
Issued by NWS

Home | Current Version | Previous Version | Text Only | Print | Product List | Glossary On
Versions: 1 2 3 4 5 6 7 8 9 10 11 12 13 14 15 16 17 18 19 20 21 22 23 24 25 26 27 28 29 30 31 32 33 34 35 36 37 38 39 40 41 42 43 44 45 46 47 48 49 50
195
ASUS43 KLMK 102110
RWRKY
KENTUCKY REGIONAL WEATHER ROUNDUP
NATIONAL WEATHER SERVICE LOUISVILLE KY
400 PM EST WED FEB 10 2016

NOTE "FAIR" INDICATES FEW OR NO CLOUDS BELOW 12,000 FEET
WITH NO SIGNIFICANT WEATHER AND/OR OBSTRUCTIONS TO VISIBILITY.

KYZ001>023-026-027-061>063-070>075-102200-
WESTERN AND SOUTH CENTRAL KENTUCKY

CITY           SKY/WX    TMP DP  RH WIND       PRES   REMARKS
PADUCAH        LGT SNOW  23  18  81 W6        30.16S VSB 3/4 WCI  16
HENDERSON      CLOUDY    25  10  54 W8        30.14F WCI  16
OWENSBORO      CLOUDY    24  10  55 W12       30.14F WCI  13
HOPKINSVILLE   CLOUDY    26  10  49 W12       30.13F WCI  16
BOWLING GREEN  CLOUDY    26  10  50 W12       30.14F WCI  16
GLASGOW        CLOUDY    25  12  56 W13       30.12S WCI  14
$$

KYZ024-025-028>034-038-045-046-053-102200-
NORTH CENTRAL KENTUCKY

CITY           SKY/WX    TMP DP  RH WIND       PRES   REMARKS
LOUISVILLE/SDF PTSUNNY   23   7  50 W12       30.09S WCI  12
LOUISVILLE/LOU MOSUNNY   23   8  52 W14G20    30.09S WCI  11
FORT KNOX      CLOUDY    22   8  55 SW12      30.07S WCI  10
$$

KYZ035>037-039>044-047>052-055>060-089>105-102200-
NORTHEAST KENTUCKY

CITY           SKY/WX    TMP DP  RH WIND       PRES   REMARKS
LEXINGTON      CLOUDY    18   6  59 W14G24    30.05S WCI   4
COVINGTON      CLOUDY    17   5  59 W14       30.02R WCI   3
FRANKFORT      MOSUNNY   19   5  54 W12G18    30.05F WCI   7
$$

KYZ054-064>069-076>088-106>120-102200-
SOUTHEAST KENTUCKY

CITY           SKY/WX    TMP DP  RH WIND       PRES   REMARKS
JACKSON        LGT SNOW  17  10  74 VRB6      30.00S WCI   9
LONDON         CLOUDY    18   6  59 W13       30.06S WCI   5
SOMERSET       MOSUNNY   19   9  63 W8        30.10F WCI   9
MIDDLESBORO    SUNNY     24   7  48 W12G17    30.06S WCI  13
MONTICELLO     PTCLDY    22   9  57 W13G21    30.10F WCI  10
$$





USA.gov is the U.S. government's official web portal to all federal, state and local government web resources and services.